| time (UTC) | temp C | wind direction | speed KPH | gust KPH | rain 1hr cm | rain 24hr cm | rain mn cm | humidity % | barometer mb |
| 20260506033038 | 19 | 297 | 4.8 | 11.3 | 0.00 | 0.00 | 0.00 | 42 | 1004.2 |
| 20260506031539 | 20 | 312 | 9.7 | 16.1 | 0.00 | 0.00 | 0.00 | 41 | 1003.8 |
| 20260506030037 | 20 | 293 | 9.7 | 16.1 | 0.00 | 0.00 | 0.00 | 39 | 1003.7 |
| 20260506024543 | 21 | 281 | 9.7 | 16.1 | 0.00 | 0.00 | 0.00 | 37 | 1003.8 |
| 20260506023036 | 21 | 360 | 12.9 | 24.1 | 0.00 | 0.00 | 0.00 | 36 | 1003.8 |
| 20260506021550 | 22 | 360 | 14.5 | 24.1 | 0.00 | 0.00 | 0.00 | 35 | 1003.5 |
| 20260506020034 | 22 | 277 | 17.7 | 22.5 | 0.00 | 0.00 | 0.00 | 34 | 1003.4 |
| 20260506014534 | 22 | 290 | 16.1 | 29.0 | 0.00 | 0.00 | 0.00 | 34 | 1003.3 |
| 20260506013033 | 22 | 284 | 14.5 | 24.1 | 0.00 | 0.00 | 0.00 | 33 | 1003.1 |
| 20260506011533 | 22 | 276 | 20.9 | 30.6 | 0.00 | 0.00 | 0.00 | 33 | 1002.9 |
| 20260506010044 | 22 | 289 | 20.9 | 29.0 | 0.00 | 0.00 | 0.00 | 32 | 1002.8 |
| 20260506004530 | 23 | 360 | 22.5 | 37.0 | 0.00 | 0.00 | 0.00 | 31 | 1002.8 |
| 20260506003030 | 23 | 276 | 25.7 | 40.2 | 0.00 | 0.00 | 0.00 | 31 | 1002.9 |
| 20260506001528 | 23 | 297 | 24.1 | 38.6 | 0.00 | 0.00 | 0.00 | 30 | 1002.8 |
| 20260506000028 | 24 | 294 | 32.2 | 49.9 | 0.00 | 0.00 | 0.00 | 30 | 1002.9 |
| 20260505234535 | 24 | 264 | 25.7 | 43.5 | 0.00 | 0.00 | 0.00 | 29 | 1002.7 |
| 20260505233029 | 25 | 283 | 24.1 | 46.7 | 0.00 | 0.00 | 0.00 | 28 | 1002.6 |
| 20260505231529 | 25 | 302 | 35.4 | 54.7 | 0.00 | 0.00 | 0.00 | 27 | 1002.4 |
| 20260505230024 | 25 | 245 | 16.1 | 32.2 | 0.00 | 0.00 | 0.00 | 27 | 1002.3 |
| 20260505224527 | 25 | 259 | 16.1 | 30.6 | 0.00 | 0.00 | 0.00 | 27 | 1002.4 |
| 20260505223019 | 24 | 269 | 19.3 | 30.6 | 0.00 | 0.00 | 0.00 | 28 | 1002.5 |
| 20260505221617 | 24 | 360 | 17.7 | 35.4 | 0.00 | 0.00 | 0.00 | 28 | 1002.6 |
| 20260505220013 | 23 | 274 | 19.3 | 35.4 | 0.00 | 0.00 | 0.00 | 29 | 1002.7 |
| 20260505214514 | 23 | 283 | 16.1 | 35.4 | 0.00 | 0.00 | 0.00 | 28 | 1003.1 |
| 20260505213016 | 23 | 360 | 19.3 | 35.4 | 0.00 | 0.00 | 0.00 | 27 | 1003.3 |
| 20260505211527 | 23 | 284 | 24.1 | 43.5 | 0.00 | 0.00 | 0.00 | 26 | 1003.6 |
| 20260505210011 | 24 | 272 | 20.9 | 40.2 | 0.00 | 0.00 | 0.00 | 27 | 1003.7 |
| 20260505204508 | 23 | 265 | 19.3 | 37.0 | 0.00 | 0.00 | 0.00 | 28 | 1003.4 |
| 20260505203004 | 23 | 360 | 19.3 | 30.6 | 0.00 | 0.00 | 0.00 | 27 | 1003.5 |
| 20260505201506 | 23 | 266 | 17.7 | 32.2 | 0.00 | 0.00 | 0.00 | 29 | 1003.7 |
| 20260505200003 | 23 | 281 | 22.5 | 37.0 | 0.00 | 0.00 | 0.00 | 29 | 1003.8 |
| 20260505194504 | 23 | 276 | 20.9 | 35.4 | 0.00 | 0.00 | 0.00 | 29 | 1003.8 |
| 20260505193001 | 23 | 252 | 14.5 | 29.0 | 0.00 | 0.00 | 0.00 | 30 | 1003.8 |
| 20260505191602 | 23 | 277 | 17.7 | 29.0 | 0.00 | 0.00 | 0.00 | 30 | 1003.9 |
| 20260505190057 | 23 | 272 | 14.5 | 25.7 | 0.00 | 0.00 | 0.00 | 30 | 1004.1 |
| 20260505184558 | 23 | 360 | 14.5 | 25.7 | 0.00 | 0.00 | 0.00 | 29 | 1004.2 |
| 20260505183057 | 23 | 277 | 12.9 | 24.1 | 0.00 | 0.00 | 0.00 | 28 | 1004.5 |
| 20260505181553 | 23 | 243 | 9.7 | 20.9 | 0.00 | 0.00 | 0.00 | 29 | 1004.6 |
| 20260505180057 | 23 | 248 | 8.0 | 19.3 | 0.00 | 0.00 | 0.00 | 29 | 1004.4 |
| 20260505174549 | 23 | 261 | 9.7 | 20.9 | 0.00 | 0.00 | 0.00 | 29 | 1004.5 |
| 20260505173047 | 23 | 274 | 8.0 | 12.9 | 0.00 | 0.00 | 0.00 | 30 | 1004.4 |
| 20260505171546 | 23 | 290 | 8.0 | 14.5 | 0.00 | 0.00 | 0.00 | 31 | 1004.6 |
| 20260505170044 | 22 | 360 | 9.7 | 16.1 | 0.00 | 0.00 | 0.00 | 32 | 1004.9 |
| 20260505164542 | 22 | 285 | 9.7 | 19.3 | 0.00 | 0.00 | 0.00 | 32 | 1004.8 |
| 20260505163040 | 22 | 296 | 12.9 | 19.3 | 0.00 | 0.00 | 0.00 | 32 | 1004.9 |
| 20260505161540 | 22 | 284 | 11.3 | 17.7 | 0.00 | 0.00 | 0.00 | 32 | 1004.7 |
| 20260505153034 | 21 | 274 | 8.0 | 16.1 | 0.00 | 0.00 | 0.00 | 34 | 1004.8 |
| 20260505151539 | 21 | 360 | 6.4 | 12.9 | 0.00 | 0.00 | 0.00 | 35 | 1004.6 |
| 20260505124515 | 20 | 288 | 6.4 | 12.9 | 0.00 | 0.00 | 0.00 | 33 | 1003.1 |
| 20260505123013 | 20 | 290 | 8.0 | 14.5 | 0.00 | 0.00 | 0.00 | 31 | 1003.1 |
| 20260505121511 | 20 | 290 | 9.7 | 14.5 | 0.00 | 0.00 | 0.00 | 30 | 1002.9 |
| 20260505120014 | 20 | 283 | 11.3 | 20.9 | 0.00 | 0.00 | 0.00 | 30 | 1002.7 |
| 20260505114511 | 19 | 288 | 12.9 | 22.5 | 0.00 | 0.00 | 0.00 | 32 | 1002.4 |
| 20260505113008 | 18 | 290 | 8.0 | 14.5 | 0.00 | 0.00 | 0.00 | 37 | 1002.5 |
| 20260505111519 | 19 | 279 | 9.7 | 14.5 | 0.00 | 0.00 | 0.00 | 36 | 1002.2 |
| 20260505101515 | 19 | 281 | 16.1 | 25.7 | 0.00 | 0.00 | 0.00 | 33 | 1002.3 |
| 20260505100005 | 19 | 266 | 14.5 | 24.1 | 0.00 | 0.00 | 0.00 | 35 | 1002.5 |
| 20260505094503 | 18 | 268 | 9.7 | 17.7 | 0.00 | 0.00 | 0.00 | 37 | 1002.3 |
| 20260505093004 | 18 | 270 | 9.7 | 16.1 | 0.00 | 0.00 | 0.00 | 39 | 1002.2 |
| 20260505091501 | 18 | 249 | 6.4 | 12.9 | 0.00 | 0.00 | 0.00 | 40 | 1002.2 |
| 20260505090104 | 18 | 255 | 4.8 | 11.3 | 0.00 | 0.00 | 0.00 | 39 | 1002.3 |
| 20260505084607 | 18 | 263 | 6.4 | 16.1 | 0.00 | 0.00 | 0.00 | 40 | 1002.4 |
| 20260505083107 | 18 | 259 | 4.8 | 11.3 | 0.00 | 0.00 | 0.00 | 41 | 1002.5 |
| 20260505081556 | 18 | 261 | 4.8 | 9.7 | 0.00 | 0.00 | 0.00 | 40 | 1002.6 |
| 20260505080050 | 19 | 262 | 4.8 | 12.9 | 0.00 | 0.00 | 0.00 | 37 | 1002.6 |
| 20260505074548 | 19 | 267 | 8.0 | 12.9 | 0.00 | 0.00 | 0.00 | 37 | 1002.6 |
| 20260505073044 | 19 | 258 | 4.8 | 11.3 | 0.00 | 0.00 | 0.00 | 37 | 1002.5 |
| 20260505071539 | 20 | 256 | 6.4 | 11.3 | 0.00 | 0.00 | 0.00 | 36 | 1002.7 |
| 20260505070036 | 20 | 256 | 6.4 | 11.3 | 0.00 | 0.00 | 0.00 | 35 | 1002.7 |
| 20260505064526 | 21 | 259 | 8.0 | 17.7 | 0.00 | 0.00 | 0.00 | 32 | 1002.9 |
| 20260505063020 | 21 | 264 | 11.3 | 19.3 | 0.00 | 0.00 | 0.00 | 31 | 1003.0 |
| 20260505061519 | 21 | 269 | 11.3 | 20.9 | 0.00 | 0.00 | 0.00 | 30 | 1002.9 |
| 20260505060010 | 21 | 278 | 14.5 | 24.1 | 0.00 | 0.00 | 0.00 | 30 | 1003.0 |
| 20260505054509 | 22 | 262 | 11.3 | 17.7 | 0.00 | 0.00 | 0.00 | 29 | 1003.1 |
| 20260505053014 | 21 | 279 | 11.3 | 17.7 | 0.00 | 0.00 | 0.00 | 30 | 1003.2 |
| 20260505051508 | 21 | 276 | 9.7 | 17.7 | 0.00 | 0.00 | 0.00 | 31 | 1003.4 |
| 20260505041506 | 22 | 280 | 12.9 | 20.9 | 0.00 | 0.00 | 0.00 | 26 | 1003.4 |
| 20260505040013 | 22 | 269 | 9.7 | 16.1 | 0.00 | 0.00 | 0.00 | 28 | 1003.4 |
| 20260505034504 | 22 | 261 | 9.7 | 19.3 | 0.00 | 0.00 | 0.00 | 27 | 1003.4 |